owner,sensor,date,latitude,longitude,vertical_datum,wind_speed,wind_to_direction,wind_speed_of_gust,qcFlag 
WAVCIS,ioos:station:WAVCIS:CSI03:3,2009-11-01T00:00:00Z,29.4412,-92.0613,10.0,3.719,3.0,,'11111222,11111222,99999999' 
WAVCIS,ioos:station:WAVCIS:CSI03:3,2009-11-01T01:00:00Z,29.4412,-92.0613,10.0,3.49,14.0,,'11111222,11111222,99999999' 
WAVCIS,ioos:station:WAVCIS:CSI03:3,2009-11-01T02:00:00Z,29.4412,-92.0613,10.0,2.489,45.0,,'11111222,11111222,99999999' 
WAVCIS,ioos:station:WAVCIS:CSI03:3,2009-11-01T03:00:00Z,29.4412,-92.0613,10.0,3.353,70.0,,'11111222,11111222,99999999' 
WAVCIS,ioos:station:WAVCIS:CSI03:3,2009-11-01T04:00:00Z,29.4412,-92.0613,10.0,2.724,73.0,,'11111222,11111222,99999999' 
WAVCIS,ioos:station:WAVCIS:CSI03:3,2009-11-01T05:00:00Z,29.4412,-92.0613,10.0,2.674,69.0,,'11111222,11111222,99999999' 
WAVCIS,ioos:station:WAVCIS:CSI03:3,2009-11-01T06:00:00Z,29.4412,-92.0613,10.0,2.215,58.0,,'11111222,11111222,99999999' 
WAVCIS,ioos:station:WAVCIS:CSI03:3,2009-11-01T07:00:00Z,29.4412,-92.0613,10.0,1.533,62.0,,'11111222,11111222,99999999' 
WAVCIS,ioos:station:WAVCIS:CSI03:3,2009-11-01T08:00:00Z,29.4412,-92.0613,10.0,1.456,47.0,,'11111222,11111222,99999999' 
WAVCIS,ioos:station:WAVCIS:CSI03:3,2009-11-01T09:00:00Z,29.4412,-92.0613,10.0,2.071,19.0,,'11111222,11111222,99999999' 
WAVCIS,ioos:station:WAVCIS:CSI03:3,2009-11-01T10:00:00Z,29.4412,-92.0613,10.0,2.878,6.0,,'11111222,11111222,99999999' 
WAVCIS,ioos:station:WAVCIS:CSI03:3,2009-11-01T11:00:00Z,29.4412,-92.0613,10.0,2.463,20.0,,'11111222,11111222,99999999' 
WAVCIS,ioos:station:WAVCIS:CSI03:3,2009-11-01T12:00:00Z,29.4412,-92.0613,10.0,3.916,18.0,,'11111222,11111222,99999999' 
WAVCIS,ioos:station:WAVCIS:CSI03:3,2009-11-01T13:00:00Z,29.4412,-92.0613,10.0,2.928,37.0,,'11111222,11111222,99999999' 
WAVCIS,ioos:station:WAVCIS:CSI03:3,2009-11-01T14:00:00Z,29.4412,-92.0613,10.0,3.149,42.0,,'11111222,11111222,99999999' 
WAVCIS,ioos:station:WAVCIS:CSI03:3,2009-11-01T15:00:00Z,29.4412,-92.0613,10.0,5.255,60.0,,'11111222,11111222,99999999' 
WAVCIS,ioos:station:WAVCIS:CSI03:3,2009-11-01T16:00:00Z,29.4412,-92.0613,10.0,5.349,69.0,,'11111222,11111222,99999999' 
WAVCIS,ioos:station:WAVCIS:CSI03:3,2009-11-01T17:00:00Z,29.4412,-92.0613,10.0,4.058,77.0,,'11111222,11111222,99999999' 
WAVCIS,ioos:station:WAVCIS:CSI03:3,2009-11-01T18:00:00Z,29.4412,-92.0613,10.0,2.843,118.0,,'11111222,11111222,99999999' 
WAVCIS,ioos:station:WAVCIS:CSI03:3,2009-11-01T19:00:00Z,29.4412,-92.0613,10.0,2.094,132.0,,'11111222,11111222,99999999' 
WAVCIS,ioos:station:WAVCIS:CSI03:3,2009-11-01T20:00:00Z,29.4412,-92.0613,10.0,0.646,174.0,,'11111222,11111222,99999999' 
WAVCIS,ioos:station:WAVCIS:CSI03:3,2009-11-01T21:00:00Z,29.4412,-92.0613,10.0,0.59,309.0,,'11111222,11111222,99999999' 
WAVCIS,ioos:station:WAVCIS:CSI03:3,2009-11-01T22:00:00Z,29.4412,-92.0613,10.0,3.879,18.0,,'11111222,11111222,99999999' 
WAVCIS,ioos:station:WAVCIS:CSI03:3,2009-11-01T23:00:00Z,29.4412,-92.0613,10.0,1.925,9.0,,'11111222,11111222,99999999' 
WAVCIS,ioos:station:WAVCIS:CSI03:3,2009-11-02T00:00:00Z,29.4412,-92.0613,10.0,1.37,357.0,,'11111222,11111222,99999999' 
WAVCIS,ioos:station:WAVCIS:CSI03:3,2009-11-02T01:00:00Z,29.4412,-92.0613,10.0,2.147,341.0,,'11111222,11111222,99999999' 
WAVCIS,ioos:station:WAVCIS:CSI03:3,2009-11-02T02:00:00Z,29.4412,-92.0613,10.0,2.636,3.0,,'11111222,11111222,99999999' 
WAVCIS,ioos:station:WAVCIS:CSI03:3,2009-11-02T03:00:00Z,29.4412,-92.0613,10.0,2.645,2.0,,'11111222,11111222,99999999' 
WAVCIS,ioos:station:WAVCIS:CSI03:3,2009-11-02T04:00:00Z,29.4412,-92.0613,10.0,3.204,15.0,,'11111222,11111222,99999999' 
WAVCIS,ioos:station:WAVCIS:CSI03:3,2009-11-02T05:00:00Z,29.4412,-92.0613,10.0,2.783,30.0,,'11111222,11111222,99999999' 
WAVCIS,ioos:station:WAVCIS:CSI03:3,2009-11-02T06:00:00Z,29.4412,-92.0613,10.0,3.275,53.0,,'11111222,11111222,99999999' 
WAVCIS,ioos:station:WAVCIS:CSI03:3,2009-11-02T07:00:00Z,29.4412,-92.0613,10.0,5.806,56.0,,'11111222,11111222,99999999' 
WAVCIS,ioos:station:WAVCIS:CSI03:3,2009-11-02T08:00:00Z,29.4412,-92.0613,10.0,6.074,58.0,,'11111222,11111222,99999999' 
WAVCIS,ioos:station:WAVCIS:CSI03:3,2009-11-02T09:00:00Z,29.4412,-92.0613,10.0,6.552,65.0,,'11111222,11111222,99999999' 
WAVCIS,ioos:station:WAVCIS:CSI03:3,2009-11-02T10:00:00Z,29.4412,-92.0613,10.0,6.382,68.0,,'11111222,11111222,99999999' 
WAVCIS,ioos:station:WAVCIS:CSI03:3,2009-11-02T11:00:00Z,29.4412,-92.0613,10.0,5.858,67.0,,'11111222,11111222,99999999' 
WAVCIS,ioos:station:WAVCIS:CSI03:3,2009-11-02T12:00:00Z,29.4412,-92.0613,10.0,5.851,66.0,,'11111222,11111222,99999999' 
WAVCIS,ioos:station:WAVCIS:CSI03:3,2009-11-02T13:00:00Z,29.4412,-92.0613,10.0,5.203,60.0,,'11111222,11111222,99999999' 
WAVCIS,ioos:station:WAVCIS:CSI03:3,2009-11-02T14:00:00Z,29.4412,-92.0613,10.0,4.81,57.0,,'11111222,11111222,99999999' 
WAVCIS,ioos:station:WAVCIS:CSI03:3,2009-11-02T15:00:00Z,29.4412,-92.0613,10.0,4.82,58.0,,'11111222,11111222,99999999' 
WAVCIS,ioos:station:WAVCIS:CSI03:3,2009-11-02T16:00:00Z,29.4412,-92.0613,10.0,3.729,60.0,,'11111222,11111222,99999999' 
WAVCIS,ioos:station:WAVCIS:CSI03:3,2009-11-02T17:00:00Z,29.4412,-92.0613,10.0,2.794,57.0,,'11111222,11111222,99999999' 
WAVCIS,ioos:station:WAVCIS:CSI03:3,2009-11-02T18:00:00Z,29.4412,-92.0613,10.0,3.206,15.0,,'11111222,11111222,99999999' 
WAVCIS,ioos:station:WAVCIS:CSI03:3,2009-11-02T19:00:00Z,29.4412,-92.0613,10.0,3.554,9.0,,'11111222,11111222,99999999' 
WAVCIS,ioos:station:WAVCIS:CSI03:3,2009-11-02T20:00:00Z,29.4412,-92.0613,10.0,3.091,5.0,,'11111222,11111222,99999999' 
WAVCIS,ioos:station:WAVCIS:CSI03:3,2009-11-02T21:00:00Z,29.4412,-92.0613,10.0,3.914,8.0,,'11111222,11111222,99999999' 
WAVCIS,ioos:station:WAVCIS:CSI03:3,2009-11-02T22:00:00Z,29.4412,-92.0613,10.0,2.847,20.0,,'11111222,11111222,99999999' 
WAVCIS,ioos:station:WAVCIS:CSI03:3,2009-11-02T23:00:00Z,29.4412,-92.0613,10.0,3.194,51.0,,'11111222,11111222,99999999' 
WAVCIS,ioos:station:WAVCIS:CSI03:3,2009-11-03T00:00:00Z,29.4412,-92.0613,10.0,3.251,53.0,,'11111222,11111222,99999999' 
WAVCIS,ioos:station:WAVCIS:CSI03:3,2009-11-03T01:00:00Z,29.4412,-92.0613,10.0,3.323,55.0,,'11111222,11111222,99999999' 
WAVCIS,ioos:station:WAVCIS:CSI03:3,2009-11-03T02:00:00Z,29.4412,-92.0613,10.0,2.465,39.0,,'11111222,11111222,99999999' 
WAVCIS,ioos:station:WAVCIS:CSI03:3,2009-11-03T03:00:00Z,29.4412,-92.0613,10.0,2.977,42.0,,'11111222,11111222,99999999' 
WAVCIS,ioos:station:WAVCIS:CSI03:3,2009-11-03T04:00:00Z,29.4412,-92.0613,10.0,4.707,54.0,,'11111222,11111222,99999999' 
WAVCIS,ioos:station:WAVCIS:CSI03:3,2009-11-03T05:00:00Z,29.4412,-92.0613,10.0,5.802,56.0,,'11111222,11111222,99999999' 
WAVCIS,ioos:station:WAVCIS:CSI03:3,2009-11-03T06:00:00Z,29.4412,-92.0613,10.0,6.461,55.0,,'11111222,11111222,99999999' 
WAVCIS,ioos:station:WAVCIS:CSI03:3,2009-11-03T07:00:00Z,29.4412,-92.0613,10.0,6.289,62.0,,'11111222,11111222,99999999' 
WAVCIS,ioos:station:WAVCIS:CSI03:3,2009-11-03T08:00:00Z,29.4412,-92.0613,10.0,6.066,59.0,,'11111222,11111222,99999999' 
WAVCIS,ioos:station:WAVCIS:CSI03:3,2009-11-03T09:00:00Z,29.4412,-92.0613,10.0,6.11,60.0,,'11111222,11111222,99999999' 
WAVCIS,ioos:station:WAVCIS:CSI03:3,2009-11-03T10:00:00Z,29.4412,-92.0613,10.0,5.699,57.0,,'11111222,11111222,99999999' 
WAVCIS,ioos:station:WAVCIS:CSI03:3,2009-11-03T11:00:00Z,29.4412,-92.0613,10.0,4.524,53.0,,'11111222,11111222,99999999' 
WAVCIS,ioos:station:WAVCIS:CSI03:3,2009-11-03T12:00:00Z,29.4412,-92.0613,10.0,4.502,54.0,,'11111222,11111222,99999999' 
WAVCIS,ioos:station:WAVCIS:CSI03:3,2009-11-03T13:00:00Z,29.4412,-92.0613,10.0,6.278,56.0,,'11111222,11111222,99999999' 
WAVCIS,ioos:station:WAVCIS:CSI03:3,2009-11-03T14:00:00Z,29.4412,-92.0613,10.0,6.393,58.0,,'11111222,11111222,99999999' 
WAVCIS,ioos:station:WAVCIS:CSI03:3,2009-11-03T15:00:00Z,29.4412,-92.0613,10.0,6.275,60.0,,'11111222,11111222,99999999' 
WAVCIS,ioos:station:WAVCIS:CSI03:3,2009-11-03T16:00:00Z,29.4412,-92.0613,10.0,5.546,64.0,,'11111222,11111222,99999999' 
WAVCIS,ioos:station:WAVCIS:CSI03:3,2009-11-03T17:00:00Z,29.4412,-92.0613,10.0,4.342,63.0,,'11111222,11111222,99999999' 
WAVCIS,ioos:station:WAVCIS:CSI03:3,2009-11-03T18:00:00Z,29.4412,-92.0613,10.0,4.234,98.0,,'11111222,11111222,99999999' 
WAVCIS,ioos:station:WAVCIS:CSI03:3,2009-11-03T19:00:00Z,29.4412,-92.0613,10.0,2.594,94.0,,'11111222,11111222,99999999' 
WAVCIS,ioos:station:WAVCIS:CSI03:3,2009-11-03T20:00:00Z,29.4412,-92.0613,10.0,3.025,79.0,,'11111222,11111222,99999999' 
WAVCIS,ioos:station:WAVCIS:CSI03:3,2009-11-03T21:00:00Z,29.4412,-92.0613,10.0,3.343,82.0,,'11111222,11111222,99999999' 
WAVCIS,ioos:station:WAVCIS:CSI03:3,2009-11-03T22:00:00Z,29.4412,-92.0613,10.0,0.443,60.0,,'11111222,11111222,99999999' 
WAVCIS,ioos:station:WAVCIS:CSI03:3,2009-11-03T23:00:00Z,29.4412,-92.0613,10.0,0.233,76.0,,'11111222,11111222,99999999' 
WAVCIS,ioos:station:WAVCIS:CSI03:3,2009-11-04T00:00:00Z,29.4412,-92.0613,10.0,0.932,33.0,,'11111222,11111222,99999999' 
WAVCIS,ioos:station:WAVCIS:CSI03:3,2009-11-04T01:00:00Z,29.4412,-92.0613,10.0,2.091,77.0,,'11111222,11111222,99999999' 
WAVCIS,ioos:station:WAVCIS:CSI03:3,2009-11-04T02:00:00Z,29.4412,-92.0613,10.0,2.668,79.0,,'11111222,11111222,99999999' 
WAVCIS,ioos:station:WAVCIS:CSI03:3,2009-11-04T03:00:00Z,29.4412,-92.0613,10.0,2.2,54.0,,'11111222,11111222,99999999' 
WAVCIS,ioos:station:WAVCIS:CSI03:3,2009-11-04T04:00:00Z,29.4412,-92.0613,10.0,2.034,63.0,,'11111222,11111222,99999999' 
WAVCIS,ioos:station:WAVCIS:CSI03:3,2009-11-04T05:00:00Z,29.4412,-92.0613,10.0,1.966,76.0,,'11111222,11111222,99999999' 
WAVCIS,ioos:station:WAVCIS:CSI03:3,2009-11-04T06:00:00Z,29.4412,-92.0613,10.0,1.632,31.0,,'11111222,11111222,99999999' 
WAVCIS,ioos:station:WAVCIS:CSI03:3,2009-11-04T07:00:00Z,29.4412,-92.0613,10.0,2.421,14.0,,'11111222,11111222,99999999' 
WAVCIS,ioos:station:WAVCIS:CSI03:3,2009-11-04T08:00:00Z,29.4412,-92.0613,10.0,3.069,13.0,,'11111222,11111222,99999999' 
WAVCIS,ioos:station:WAVCIS:CSI03:3,2009-11-04T09:00:00Z,29.4412,-92.0613,10.0,2.555,22.0,,'11111222,11111222,99999999' 
WAVCIS,ioos:station:WAVCIS:CSI03:3,2009-11-04T10:00:00Z,29.4412,-92.0613,10.0,2.245,44.0,,'11111222,11111222,99999999' 
WAVCIS,ioos:station:WAVCIS:CSI03:3,2009-11-04T11:00:00Z,29.4412,-92.0613,10.0,5.016,56.0,,'11111222,11111222,99999999' 
WAVCIS,ioos:station:WAVCIS:CSI03:3,2009-11-04T12:00:00Z,29.4412,-92.0613,10.0,4.667,55.0,,'11111222,11111222,99999999' 
WAVCIS,ioos:station:WAVCIS:CSI03:3,2009-11-04T13:00:00Z,29.4412,-92.0613,10.0,5.343,58.0,,'11111222,11111222,99999999' 
WAVCIS,ioos:station:WAVCIS:CSI03:3,2009-11-04T14:00:00Z,29.4412,-92.0613,10.0,5.506,63.0,,'11111222,11111222,99999999' 
WAVCIS,ioos:station:WAVCIS:CSI03:3,2009-11-04T15:00:00Z,29.4412,-92.0613,10.0,5.333,69.0,,'11111222,11111222,99999999' 
WAVCIS,ioos:station:WAVCIS:CSI03:3,2009-11-04T16:00:00Z,29.4412,-92.0613,10.0,4.184,65.0,,'11111222,11111222,99999999' 
WAVCIS,ioos:station:WAVCIS:CSI03:3,2009-11-04T17:00:00Z,29.4412,-92.0613,10.0,2.787,65.0,,'11111222,11111222,99999999' 
WAVCIS,ioos:station:WAVCIS:CSI03:3,2009-11-04T18:00:00Z,29.4412,-92.0613,10.0,0.848,45.0,,'11111222,11111222,99999999' 
WAVCIS,ioos:station:WAVCIS:CSI03:3,2009-11-04T19:00:00Z,29.4412,-92.0613,10.0,2.427,24.0,,'11111222,11111222,99999999' 
WAVCIS,ioos:station:WAVCIS:CSI03:3,2009-11-04T20:00:00Z,29.4412,-92.0613,10.0,2.2,12.0,,'11111222,11111222,99999999' 
WAVCIS,ioos:station:WAVCIS:CSI03:3,2009-11-04T21:00:00Z,29.4412,-92.0613,10.0,2.011,17.0,,'11111222,11111222,99999999' 
WAVCIS,ioos:station:WAVCIS:CSI03:3,2009-11-04T22:00:00Z,29.4412,-92.0613,10.0,1.883,29.0,,'11111222,11111222,99999999' 
WAVCIS,ioos:station:WAVCIS:CSI03:3,2009-11-04T23:00:00Z,29.4412,-92.0613,10.0,1.747,47.0,,'11111222,11111222,99999999' 
WAVCIS,ioos:station:WAVCIS:CSI03:3,2009-11-05T00:00:00Z,29.4412,-92.0613,10.0,2.052,38.0,,'11111222,11111222,99999999' 
WAVCIS,ioos:station:WAVCIS:CSI03:3,2009-11-05T01:00:00Z,29.4412,-92.0613,10.0,2.153,51.0,,'11111222,11111222,99999999' 
WAVCIS,ioos:station:WAVCIS:CSI03:3,2009-11-05T02:00:00Z,29.4412,-92.0613,10.0,2.305,43.0,,'11111222,11111222,99999999' 
WAVCIS,ioos:station:WAVCIS:CSI03:3,2009-11-05T03:00:00Z,29.4412,-92.0613,10.0,2.872,36.0,,'11111222,11111222,99999999' 
WAVCIS,ioos:station:WAVCIS:CSI03:3,2009-11-05T04:00:00Z,29.4412,-92.0613,10.0,2.98,39.0,,'11111222,11111222,99999999' 
WAVCIS,ioos:station:WAVCIS:CSI03:3,2009-11-05T05:00:00Z,29.4412,-92.0613,10.0,3.067,51.0,,'11111222,11111222,99999999' 
WAVCIS,ioos:station:WAVCIS:CSI03:3,2009-11-05T06:00:00Z,29.4412,-92.0613,10.0,2.958,46.0,,'11111222,11111222,99999999' 
WAVCIS,ioos:station:WAVCIS:CSI03:3,2009-11-05T07:00:00Z,29.4412,-92.0613,10.0,2.916,46.0,,'11111222,11111222,99999999' 
WAVCIS,ioos:station:WAVCIS:CSI03:3,2009-11-05T08:00:00Z,29.4412,-92.0613,10.0,5.632,55.0,,'11111222,11111222,99999999' 
WAVCIS,ioos:station:WAVCIS:CSI03:3,2009-11-05T09:00:00Z,29.4412,-92.0613,10.0,5.765,56.0,,'11111222,11111222,99999999' 
WAVCIS,ioos:station:WAVCIS:CSI03:3,2009-11-05T10:00:00Z,29.4412,-92.0613,10.0,5.7,56.0,,'11111222,11111222,99999999' 
WAVCIS,ioos:station:WAVCIS:CSI03:3,2009-11-05T11:00:00Z,29.4412,-92.0613,10.0,6.272,56.0,,'11111222,11111222,99999999' 
WAVCIS,ioos:station:WAVCIS:CSI03:3,2009-11-05T12:00:00Z,29.4412,-92.0613,10.0,6.085,58.0,,'11111222,11111222,99999999' 
WAVCIS,ioos:station:WAVCIS:CSI03:3,2009-11-05T13:00:00Z,29.4412,-92.0613,10.0,7.16,57.0,,'11111222,11111222,99999999' 
WAVCIS,ioos:station:WAVCIS:CSI03:3,2009-11-05T14:00:00Z,29.4412,-92.0613,10.0,7.12,64.0,,'11111222,11111222,99999999' 
WAVCIS,ioos:station:WAVCIS:CSI03:3,2009-11-05T15:00:00Z,29.4412,-92.0613,10.0,7.45,61.0,,'11111222,11111222,99999999' 
WAVCIS,ioos:station:WAVCIS:CSI03:3,2009-11-05T16:00:00Z,29.4412,-92.0613,10.0,6.324,64.0,,'11111222,11111222,99999999' 
WAVCIS,ioos:station:WAVCIS:CSI03:3,2009-11-05T17:00:00Z,29.4412,-92.0613,10.0,4.979,64.0,,'11111222,11111222,99999999' 
WAVCIS,ioos:station:WAVCIS:CSI03:3,2009-11-05T18:00:00Z,29.4412,-92.0613,10.0,5.146,65.0,,'11111222,11111222,99999999' 
WAVCIS,ioos:station:WAVCIS:CSI03:3,2009-11-05T19:00:00Z,29.4412,-92.0613,10.0,2.891,93.0,,'11111222,11111222,99999999' 
WAVCIS,ioos:station:WAVCIS:CSI03:3,2009-11-05T20:00:00Z,29.4412,-92.0613,10.0,2.735,128.0,,'11111222,11111222,99999999' 
WAVCIS,ioos:station:WAVCIS:CSI03:3,2009-11-05T21:00:00Z,29.4412,-92.0613,10.0,3.649,128.0,,'11111222,11111222,99999999' 
WAVCIS,ioos:station:WAVCIS:CSI03:3,2009-11-05T22:00:00Z,29.4412,-92.0613,10.0,3.187,131.0,,'11111222,11111222,99999999' 
WAVCIS,ioos:station:WAVCIS:CSI03:3,2009-11-05T23:00:00Z,29.4412,-92.0613,10.0,2.751,103.0,,'11111222,11111222,99999999' 
WAVCIS,ioos:station:WAVCIS:CSI03:3,2009-11-06T00:00:00Z,29.4412,-92.0613,10.0,3.266,101.0,,'11111222,11111222,99999999' 
WAVCIS,ioos:station:WAVCIS:CSI03:3,2009-11-06T01:00:00Z,29.4412,-92.0613,10.0,1.451,59.0,,'11111222,11111222,99999999' 
WAVCIS,ioos:station:WAVCIS:CSI03:3,2009-11-06T02:00:00Z,29.4412,-92.0613,10.0,1.497,127.0,,'11111222,11111222,99999999' 
WAVCIS,ioos:station:WAVCIS:CSI03:3,2009-11-06T03:00:00Z,29.4412,-92.0613,10.0,1.631,176.0,,'11111222,11111222,99999999' 
WAVCIS,ioos:station:WAVCIS:CSI03:3,2009-11-06T04:00:00Z,29.4412,-92.0613,10.0,0.838,151.0,,'11111222,11111222,99999999' 
WAVCIS,ioos:station:WAVCIS:CSI03:3,2009-11-06T05:00:00Z,29.4412,-92.0613,10.0,1.44,356.0,,'11111222,11111222,99999999' 
WAVCIS,ioos:station:WAVCIS:CSI03:3,2009-11-06T06:00:00Z,29.4412,-92.0613,10.0,1.171,55.0,,'11111222,11111222,99999999' 
WAVCIS,ioos:station:WAVCIS:CSI03:3,2009-11-06T07:00:00Z,29.4412,-92.0613,10.0,2.84,73.0,,'11111222,11111222,99999999' 
WAVCIS,ioos:station:WAVCIS:CSI03:3,2009-11-06T08:00:00Z,29.4412,-92.0613,10.0,2.662,62.0,,'11111222,11111222,99999999' 
WAVCIS,ioos:station:WAVCIS:CSI03:3,2009-11-06T09:00:00Z,29.4412,-92.0613,10.0,3.699,82.0,,'11111222,11111222,99999999' 
WAVCIS,ioos:station:WAVCIS:CSI03:3,2009-11-06T10:00:00Z,29.4412,-92.0613,10.0,6.02,107.0,,'11111222,11111222,99999999' 
WAVCIS,ioos:station:WAVCIS:CSI03:3,2009-11-06T11:00:00Z,29.4412,-92.0613,10.0,6.706,98.0,,'11111222,11111222,99999999' 
WAVCIS,ioos:station:WAVCIS:CSI03:3,2009-11-06T12:00:00Z,29.4412,-92.0613,10.0,7.2,100.0,,'11111222,11111222,99999999' 
WAVCIS,ioos:station:WAVCIS:CSI03:3,2009-11-06T13:00:00Z,29.4412,-92.0613,10.0,7.36,86.0,,'11111222,11111222,99999999' 
WAVCIS,ioos:station:WAVCIS:CSI03:3,2009-11-06T14:00:00Z,29.4412,-92.0613,10.0,7.85,89.0,,'11111222,11111222,99999999' 
WAVCIS,ioos:station:WAVCIS:CSI03:3,2009-11-06T15:00:00Z,29.4412,-92.0613,10.0,7.61,95.0,,'11111222,11111222,99999999' 
WAVCIS,ioos:station:WAVCIS:CSI03:3,2009-11-06T16:00:00Z,29.4412,-92.0613,10.0,7.25,107.0,,'11111222,11111222,99999999' 
WAVCIS,ioos:station:WAVCIS:CSI03:3,2009-11-06T17:00:00Z,29.4412,-92.0613,10.0,6.399,101.0,,'11111222,11111222,99999999' 
WAVCIS,ioos:station:WAVCIS:CSI03:3,2009-11-06T18:00:00Z,29.4412,-92.0613,10.0,6.024,95.0,,'11111222,11111222,99999999' 
WAVCIS,ioos:station:WAVCIS:CSI03:3,2009-11-06T19:00:00Z,29.4412,-92.0613,10.0,5.635,100.0,,'11111222,11111222,99999999' 
WAVCIS,ioos:station:WAVCIS:CSI03:3,2009-11-06T20:00:00Z,29.4412,-92.0613,10.0,5.25,102.0,,'11111222,11111222,99999999' 
WAVCIS,ioos:station:WAVCIS:CSI03:3,2009-11-06T21:00:00Z,29.4412,-92.0613,10.0,5.137,98.0,,'11111222,11111222,99999999' 
WAVCIS,ioos:station:WAVCIS:CSI03:3,2009-11-06T22:00:00Z,29.4412,-92.0613,10.0,5.644,108.0,,'11111222,11111222,99999999' 
WAVCIS,ioos:station:WAVCIS:CSI03:3,2009-11-06T23:00:00Z,29.4412,-92.0613,10.0,6.336,109.0,,'11111222,11111222,99999999' 
WAVCIS,ioos:station:WAVCIS:CSI03:3,2009-11-07T00:00:00Z,29.4412,-92.0613,10.0,6.34,130.0,,'11111222,11111222,99999999' 
WAVCIS,ioos:station:WAVCIS:CSI03:3,2009-11-07T01:00:00Z,29.4412,-92.0613,10.0,6.285,137.0,,'11111222,11111222,99999999' 
WAVCIS,ioos:station:WAVCIS:CSI03:3,2009-11-07T02:00:00Z,29.4412,-92.0613,10.0,6.21,132.0,,'11111222,11111222,99999999' 
WAVCIS,ioos:station:WAVCIS:CSI03:3,2009-11-07T03:00:00Z,29.4412,-92.0613,10.0,7.33,128.0,,'11111222,11111222,99999999' 
WAVCIS,ioos:station:WAVCIS:CSI03:3,2009-11-07T04:00:00Z,29.4412,-92.0613,10.0,7.44,124.0,,'11111222,11111222,99999999' 
WAVCIS,ioos:station:WAVCIS:CSI03:3,2009-11-07T05:00:00Z,29.4412,-92.0613,10.0,6.646,117.0,,'11111222,11111222,99999999' 
WAVCIS,ioos:station:WAVCIS:CSI03:3,2009-11-07T06:00:00Z,29.4412,-92.0613,10.0,5.849,114.0,,'11111222,11111222,99999999' 
WAVCIS,ioos:station:WAVCIS:CSI03:3,2009-11-07T07:00:00Z,29.4412,-92.0613,10.0,5.046,111.0,,'11111222,11111222,99999999' 
WAVCIS,ioos:station:WAVCIS:CSI03:3,2009-11-07T08:00:00Z,29.4412,-92.0613,10.0,5.059,107.0,,'11111222,11111222,99999999' 
WAVCIS,ioos:station:WAVCIS:CSI03:3,2009-11-07T09:00:00Z,29.4412,-92.0613,10.0,5.533,105.0,,'11111222,11111222,99999999' 
WAVCIS,ioos:station:WAVCIS:CSI03:3,2009-11-07T10:00:00Z,29.4412,-92.0613,10.0,5.433,95.0,,'11111222,11111222,99999999' 
WAVCIS,ioos:station:WAVCIS:CSI03:3,2009-11-07T11:00:00Z,29.4412,-92.0613,10.0,5.02,77.0,,'11111222,11111222,99999999' 
WAVCIS,ioos:station:WAVCIS:CSI03:3,2009-11-07T12:00:00Z,29.4412,-92.0613,10.0,5.492,75.0,,'11111222,11111222,99999999' 
WAVCIS,ioos:station:WAVCIS:CSI03:3,2009-11-07T13:00:00Z,29.4412,-92.0613,10.0,5.797,79.0,,'11111222,11111222,99999999' 
WAVCIS,ioos:station:WAVCIS:CSI03:3,2009-11-07T14:00:00Z,29.4412,-92.0613,10.0,5.757,69.0,,'11111222,11111222,99999999' 
WAVCIS,ioos:station:WAVCIS:CSI03:3,2009-11-07T15:00:00Z,29.4412,-92.0613,10.0,5.941,70.0,,'11111222,11111222,99999999' 
WAVCIS,ioos:station:WAVCIS:CSI03:3,2009-11-07T16:00:00Z,29.4412,-92.0613,10.0,5.348,66.0,,'11111222,11111222,99999999' 
WAVCIS,ioos:station:WAVCIS:CSI03:3,2009-11-07T17:00:00Z,29.4412,-92.0613,10.0,3.481,59.0,,'11111222,11111222,99999999' 
WAVCIS,ioos:station:WAVCIS:CSI03:3,2009-11-07T18:00:00Z,29.4412,-92.0613,10.0,4.23,87.0,,'11111222,11111222,99999999' 
WAVCIS,ioos:station:WAVCIS:CSI03:3,2009-11-07T19:00:00Z,29.4412,-92.0613,10.0,6.214,98.0,,'11111222,11111222,99999999' 
WAVCIS,ioos:station:WAVCIS:CSI03:3,2009-11-07T20:00:00Z,29.4412,-92.0613,10.0,5.461,98.0,,'11111222,11111222,99999999' 
WAVCIS,ioos:station:WAVCIS:CSI03:3,2009-11-07T21:00:00Z,29.4412,-92.0613,10.0,5.973,100.0,,'11111222,11111222,99999999' 
WAVCIS,ioos:station:WAVCIS:CSI03:3,2009-11-07T22:00:00Z,29.4412,-92.0613,10.0,6.152,103.0,,'11111222,11111222,99999999' 
WAVCIS,ioos:station:WAVCIS:CSI03:3,2009-11-07T23:00:00Z,29.4412,-92.0613,10.0,6.156,113.0,,'11111222,11111222,99999999' 
WAVCIS,ioos:station:WAVCIS:CSI03:3,2009-11-08T00:00:00Z,29.4412,-92.0613,10.0,7.01,108.0,,'11111222,11111222,99999999' 
WAVCIS,ioos:station:WAVCIS:CSI03:3,2009-11-08T01:00:00Z,29.4412,-92.0613,10.0,7.41,100.0,,'11111222,11111222,99999999' 
WAVCIS,ioos:station:WAVCIS:CSI03:3,2009-11-08T02:00:00Z,29.4412,-92.0613,10.0,8.46,107.0,,'11111222,11111222,99999999' 
WAVCIS,ioos:station:WAVCIS:CSI03:3,2009-11-08T03:00:00Z,29.4412,-92.0613,10.0,7.91,100.0,,'11111222,11111222,99999999' 
WAVCIS,ioos:station:WAVCIS:CSI03:3,2009-11-08T04:00:00Z,29.4412,-92.0613,10.0,8.99,101.0,,'11111222,11111222,99999999' 
WAVCIS,ioos:station:WAVCIS:CSI03:3,2009-11-08T05:00:00Z,29.4412,-92.0613,10.0,9.03,97.0,,'11111222,11111222,99999999' 
WAVCIS,ioos:station:WAVCIS:CSI03:3,2009-11-08T06:00:00Z,29.4412,-92.0613,10.0,8.92,93.0,,'11111222,11111222,99999999' 
WAVCIS,ioos:station:WAVCIS:CSI03:3,2009-11-08T07:00:00Z,29.4412,-92.0613,10.0,9.18,85.0,,'11111222,11111222,99999999' 
WAVCIS,ioos:station:WAVCIS:CSI03:3,2009-11-08T08:00:00Z,29.4412,-92.0613,10.0,9.11,81.0,,'11111222,11111222,99999999' 
WAVCIS,ioos:station:WAVCIS:CSI03:3,2009-11-08T09:00:00Z,29.4412,-92.0613,10.0,8.96,91.0,,'11111222,11111222,99999999' 
WAVCIS,ioos:station:WAVCIS:CSI03:3,2009-11-08T10:00:00Z,29.4412,-92.0613,10.0,8.94,88.0,,'11111222,11111222,99999999' 
WAVCIS,ioos:station:WAVCIS:CSI03:3,2009-11-08T11:00:00Z,29.4412,-92.0613,10.0,8.93,80.0,,'11111222,11111222,99999999' 
WAVCIS,ioos:station:WAVCIS:CSI03:3,2009-11-08T12:00:00Z,29.4412,-92.0613,10.0,8.44,77.0,,'11111222,11111222,99999999' 
WAVCIS,ioos:station:WAVCIS:CSI03:3,2009-11-08T13:00:00Z,29.4412,-92.0613,10.0,9.39,73.0,,'11111222,11111222,99999999' 
WAVCIS,ioos:station:WAVCIS:CSI03:3,2009-11-08T14:00:00Z,29.4412,-92.0613,10.0,9.77,78.0,,'11111222,11111222,99999999' 
WAVCIS,ioos:station:WAVCIS:CSI03:3,2009-11-08T15:00:00Z,29.4412,-92.0613,10.0,10.28,87.0,,'11111222,11111222,99999999' 
WAVCIS,ioos:station:WAVCIS:CSI03:3,2009-11-08T16:00:00Z,29.4412,-92.0613,10.0,9.64,84.0,,'11111222,11111222,99999999' 
WAVCIS,ioos:station:WAVCIS:CSI03:3,2009-11-08T17:00:00Z,29.4412,-92.0613,10.0,8.94,82.0,,'11111222,11111222,99999999' 
WAVCIS,ioos:station:WAVCIS:CSI03:3,2009-11-08T18:00:00Z,29.4412,-92.0613,10.0,8.99,84.0,,'11111222,11111222,99999999' 
WAVCIS,ioos:station:WAVCIS:CSI03:3,2009-11-08T19:00:00Z,29.4412,-92.0613,10.0,8.6,89.0,,'11111222,11111222,99999999' 
WAVCIS,ioos:station:WAVCIS:CSI03:3,2009-11-08T20:00:00Z,29.4412,-92.0613,10.0,9.64,67.0,,'11111222,11111222,99999999' 
WAVCIS,ioos:station:WAVCIS:CSI03:3,2009-11-08T21:00:00Z,29.4412,-92.0613,10.0,9.23,80.0,,'11111222,11111222,99999999' 
WAVCIS,ioos:station:WAVCIS:CSI03:3,2009-11-08T22:00:00Z,29.4412,-92.0613,10.0,10.24,82.0,,'11111222,11111222,99999999' 
WAVCIS,ioos:station:WAVCIS:CSI03:3,2009-11-08T23:00:00Z,29.4412,-92.0613,10.0,10.33,84.0,,'11111222,11111222,99999999' 
WAVCIS,ioos:station:WAVCIS:CSI03:3,2009-11-09T00:00:00Z,29.4412,-92.0613,10.0,11.12,86.0,,'11111222,11111222,99999999' 
WAVCIS,ioos:station:WAVCIS:CSI03:3,2009-11-09T01:00:00Z,29.4412,-92.0613,10.0,11.1,83.0,,'11111222,11111222,99999999' 
WAVCIS,ioos:station:WAVCIS:CSI03:3,2009-11-09T02:00:00Z,29.4412,-92.0613,10.0,11.09,83.0,,'11111222,11111222,99999999' 
WAVCIS,ioos:station:WAVCIS:CSI03:3,2009-11-09T03:00:00Z,29.4412,-92.0613,10.0,11.35,95.0,,'11111222,11111222,99999999' 
WAVCIS,ioos:station:WAVCIS:CSI03:3,2009-11-09T04:00:00Z,29.4412,-92.0613,10.0,11.78,105.0,,'11111222,11111222,99999999' 
WAVCIS,ioos:station:WAVCIS:CSI03:3,2009-11-09T05:00:00Z,29.4412,-92.0613,10.0,13.38,107.0,,'11111222,11111222,99999999' 
WAVCIS,ioos:station:WAVCIS:CSI03:3,2009-11-09T06:00:00Z,29.4412,-92.0613,10.0,15.95,107.0,,'11111222,11111222,99999999' 